Year,Month,Day,Hour,Minute,Value (Times are PST for temperature in C)
2017,06,17,00,00,11.70
2017,06,17,00,01,11.70
2017,06,17,00,02,11.70
2017,06,17,00,03,11.70
2017,06,17,00,04,11.80
2017,06,17,00,05,11.80
2017,06,17,00,06,11.80
2017,06,17,00,07,11.80
2017,06,17,00,08,11.80
2017,06,17,00,09,11.80
2017,06,17,00,10,11.80
2017,06,17,00,11,11.80
2017,06,17,00,12,11.80
2017,06,17,00,13,11.80
2017,06,17,00,14,11.80
2017,06,17,00,15,11.80
2017,06,17,00,16,11.80
2017,06,17,00,17,11.80
2017,06,17,00,18,11.80
2017,06,17,00,19,11.80
2017,06,17,00,20,11.80
2017,06,17,00,21,11.80
2017,06,17,00,22,11.80
2017,06,17,00,23,11.80
2017,06,17,00,24,11.80
2017,06,17,00,25,11.80
2017,06,17,00,26,11.80
2017,06,17,00,27,11.80
2017,06,17,00,28,11.80
2017,06,17,00,29,11.80
2017,06,17,00,30,11.80
2017,06,17,00,31,11.80
2017,06,17,00,32,11.80
2017,06,17,00,33,11.80
2017,06,17,00,34,11.80
2017,06,17,00,35,11.80
2017,06,17,00,36,11.80
2017,06,17,00,37,11.80
2017,06,17,00,38,11.80
2017,06,17,00,39,11.80
2017,06,17,00,40,11.80
2017,06,17,00,41,11.80
2017,06,17,00,42,11.80
2017,06,17,00,43,11.80
2017,06,17,00,44,11.80
2017,06,17,00,45,11.80
2017,06,17,00,46,11.80
2017,06,17,00,47,11.80
2017,06,17,00,48,11.80
2017,06,17,00,49,11.80
2017,06,17,00,50,11.80
2017,06,17,00,51,11.80
2017,06,17,00,52,11.70
2017,06,17,00,53,11.70
2017,06,17,00,54,11.70
2017,06,17,00,55,11.70
2017,06,17,00,56,11.70
2017,06,17,00,57,11.70
2017,06,17,00,58,11.70
2017,06,17,00,59,11.70
2017,06,17,01,00,11.70
2017,06,17,01,01,11.70
2017,06,17,01,02,11.70
2017,06,17,01,03,11.70
2017,06,17,01,04,11.70
2017,06,17,01,05,11.60
2017,06,17,01,06,11.60
2017,06,17,01,07,11.60
2017,06,17,01,08,11.60
2017,06,17,01,09,11.60
2017,06,17,01,10,11.60
2017,06,17,01,11,11.60
2017,06,17,01,12,11.60
2017,06,17,01,13,11.60
2017,06,17,01,14,11.50
2017,06,17,01,15,11.50
2017,06,17,01,16,11.50
2017,06,17,01,17,11.50
2017,06,17,01,18,11.50
2017,06,17,01,19,11.50
2017,06,17,01,20,11.50
2017,06,17,01,21,11.50
2017,06,17,01,22,11.50
2017,06,17,01,23,11.40
2017,06,17,01,24,11.40
2017,06,17,01,25,11.40
2017,06,17,01,26,11.40
2017,06,17,01,27,11.40
2017,06,17,01,28,11.50
2017,06,17,01,29,11.50
2017,06,17,01,30,11.50
2017,06,17,01,31,11.50
2017,06,17,01,32,11.50
2017,06,17,01,33,11.50
2017,06,17,01,34,11.50
2017,06,17,01,35,11.50
2017,06,17,01,36,11.50
2017,06,17,01,37,11.50
2017,06,17,01,38,11.50
2017,06,17,01,39,11.50
2017,06,17,01,40,11.50
2017,06,17,01,41,11.50
2017,06,17,01,42,11.40
2017,06,17,01,43,11.40
2017,06,17,01,44,11.40
2017,06,17,01,45,11.40
2017,06,17,01,46,11.40
2017,06,17,01,47,11.40
2017,06,17,01,48,11.40
2017,06,17,01,49,11.40
2017,06,17,01,50,11.40
2017,06,17,01,51,11.40
2017,06,17,01,52,11.40
2017,06,17,01,53,11.40
2017,06,17,01,54,11.40
2017,06,17,01,55,11.40
2017,06,17,01,56,11.40
2017,06,17,01,57,11.40
2017,06,17,01,58,11.40
2017,06,17,01,59,11.40
2017,06,17,02,00,11.40
2017,06,17,02,01,11.40
2017,06,17,02,02,11.40
2017,06,17,02,03,11.40
2017,06,17,02,04,11.40
2017,06,17,02,05,11.40
2017,06,17,02,06,11.40
2017,06,17,02,07,11.40
2017,06,17,02,08,11.30
2017,06,17,02,09,11.30
2017,06,17,02,10,11.30
2017,06,17,02,11,11.30
2017,06,17,02,12,11.20
2017,06,17,02,13,11.20
2017,06,17,02,14,11.20
2017,06,17,02,15,11.20
2017,06,17,02,16,11.20
2017,06,17,02,17,11.20
2017,06,17,02,18,11.20
2017,06,17,02,19,11.10
2017,06,17,02,20,11.10
2017,06,17,02,21,11.10
2017,06,17,02,22,11.10
2017,06,17,02,23,11.10
2017,06,17,02,24,11.10
2017,06,17,02,25,11.10
2017,06,17,02,26,11.10
2017,06,17,02,27,11.10
2017,06,17,02,28,11.10
2017,06,17,02,29,11.10
2017,06,17,02,30,11.10
2017,06,17,02,31,11.00
2017,06,17,02,32,11.00
2017,06,17,02,33,11.00
2017,06,17,02,34,11.00
2017,06,17,02,35,11.00
2017,06,17,02,36,11.00
2017,06,17,02,37,11.00
2017,06,17,02,38,10.90
2017,06,17,02,39,10.90
2017,06,17,02,40,10.90
2017,06,17,02,41,10.90
2017,06,17,02,42,10.90
2017,06,17,02,43,10.90
2017,06,17,02,44,10.90
2017,06,17,02,45,10.90
2017,06,17,02,46,10.90
2017,06,17,02,47,10.90
2017,06,17,02,48,10.90
2017,06,17,02,49,10.90
2017,06,17,02,50,10.90
2017,06,17,02,51,10.90
2017,06,17,02,52,10.90
2017,06,17,02,53,10.90
2017,06,17,02,54,10.90
2017,06,17,02,55,10.80
2017,06,17,02,56,10.80
2017,06,17,02,57,10.80
2017,06,17,02,58,10.80
2017,06,17,02,59,10.80
2017,06,17,03,00,10.80
2017,06,17,03,01,10.90
2017,06,17,03,02,10.90
2017,06,17,03,03,10.90
2017,06,17,03,04,10.90
2017,06,17,03,05,10.90
2017,06,17,03,06,11.00
2017,06,17,03,07,11.00
2017,06,17,03,08,11.10
2017,06,17,03,09,11.10
2017,06,17,03,10,11.10
2017,06,17,03,11,11.20
2017,06,17,03,12,11.20
2017,06,17,03,13,11.20
2017,06,17,03,14,11.30
2017,06,17,03,15,11.30
2017,06,17,03,16,11.30
2017,06,17,03,17,11.30
2017,06,17,03,18,11.30
2017,06,17,03,19,11.30
2017,06,17,03,20,11.30
2017,06,17,03,21,11.30
2017,06,17,03,22,11.30
2017,06,17,03,23,11.30
2017,06,17,03,24,11.30
2017,06,17,03,25,11.30
2017,06,17,03,26,11.30
2017,06,17,03,27,11.30
2017,06,17,03,28,11.30
2017,06,17,03,29,11.30
2017,06,17,03,30,11.30
2017,06,17,03,31,11.30
2017,06,17,03,32,11.30
2017,06,17,03,33,11.30
2017,06,17,03,34,11.30
2017,06,17,03,35,11.30
2017,06,17,03,36,11.30
2017,06,17,03,37,11.30
2017,06,17,03,38,11.30
2017,06,17,03,39,11.30
2017,06,17,03,40,11.30
2017,06,17,03,41,11.30
2017,06,17,03,42,11.30
2017,06,17,03,43,11.30
2017,06,17,03,44,11.30
2017,06,17,03,45,11.30
2017,06,17,03,46,11.30
2017,06,17,03,47,11.30
2017,06,17,03,48,11.30
2017,06,17,03,49,11.30
2017,06,17,03,50,11.30
2017,06,17,03,51,11.30
2017,06,17,03,52,11.30
2017,06,17,03,53,11.30
2017,06,17,03,54,11.30
2017,06,17,03,55,11.30
2017,06,17,03,56,11.30
2017,06,17,03,57,11.30
2017,06,17,03,58,11.30
2017,06,17,03,59,11.30
2017,06,17,04,00,11.30
2017,06,17,04,01,11.30
2017,06,17,04,02,11.30
2017,06,17,04,03,11.30
2017,06,17,04,04,11.30
2017,06,17,04,05,11.30
2017,06,17,04,06,11.20
2017,06,17,04,07,11.30
2017,06,17,04,08,11.20
2017,06,17,04,09,11.20
2017,06,17,04,10,11.30
2017,06,17,04,11,11.20
2017,06,17,04,12,11.20
2017,06,17,04,13,11.20
2017,06,17,04,14,11.20
2017,06,17,04,15,11.20
2017,06,17,04,16,11.30
2017,06,17,04,17,11.30
2017,06,17,04,18,11.30
2017,06,17,04,19,11.30
2017,06,17,04,20,11.30
2017,06,17,04,21,11.30
2017,06,17,04,22,11.30
2017,06,17,04,23,11.30
2017,06,17,04,24,11.30
2017,06,17,04,25,11.30
2017,06,17,04,26,11.30
2017,06,17,04,27,11.30
2017,06,17,04,28,11.20
2017,06,17,04,29,11.20
2017,06,17,04,30,11.20
2017,06,17,04,31,11.20
2017,06,17,04,32,11.20
2017,06,17,04,33,11.20
2017,06,17,04,34,11.20
2017,06,17,04,35,11.20
2017,06,17,04,36,11.20
2017,06,17,04,37,11.20
2017,06,17,04,38,11.20
2017,06,17,04,39,11.20
2017,06,17,04,40,11.20
2017,06,17,04,41,11.20
2017,06,17,04,42,11.20
2017,06,17,04,43,11.20
2017,06,17,04,44,11.20
2017,06,17,04,45,11.20
2017,06,17,04,46,11.20
2017,06,17,04,47,11.20
2017,06,17,04,48,11.20
2017,06,17,04,49,11.20
2017,06,17,04,50,11.20
2017,06,17,04,51,11.20
2017,06,17,04,52,11.20
2017,06,17,04,53,11.20
2017,06,17,04,54,11.20
2017,06,17,04,55,11.20
2017,06,17,04,56,11.20
2017,06,17,04,57,11.20
2017,06,17,04,58,11.20
2017,06,17,04,59,11.20
2017,06,17,05,00,11.20
2017,06,17,05,01,11.10
2017,06,17,05,02,11.10
2017,06,17,05,03,11.10
2017,06,17,05,04,11.10
2017,06,17,05,05,11.10
2017,06,17,05,06,11.10
2017,06,17,05,07,11.10
2017,06,17,05,08,11.10
2017,06,17,05,09,11.10
2017,06,17,05,10,11.10
2017,06,17,05,11,11.10
2017,06,17,05,12,11.10
2017,06,17,05,13,11.10
2017,06,17,05,14,11.10
2017,06,17,05,15,11.10
2017,06,17,05,16,11.10
2017,06,17,05,17,11.10
2017,06,17,05,18,11.10
2017,06,17,05,19,11.10
2017,06,17,05,20,11.10
2017,06,17,05,21,11.10
2017,06,17,05,22,11.10
2017,06,17,05,23,11.10
2017,06,17,05,24,11.10
2017,06,17,05,25,11.10
2017,06,17,05,26,11.10
2017,06,17,05,27,11.10
2017,06,17,05,28,11.10
2017,06,17,05,29,11.10
2017,06,17,05,30,11.10
2017,06,17,05,31,11.10
2017,06,17,05,32,11.10
2017,06,17,05,33,11.10
2017,06,17,05,34,11.10
2017,06,17,05,35,11.10
2017,06,17,05,36,11.10
2017,06,17,05,37,11.10
2017,06,17,05,38,11.10
2017,06,17,05,39,11.10
2017,06,17,05,40,11.10
2017,06,17,05,41,11.10
2017,06,17,05,42,11.20
2017,06,17,05,43,11.20
2017,06,17,05,44,11.20
2017,06,17,05,45,11.20
2017,06,17,05,46,11.20
2017,06,17,05,47,11.20
2017,06,17,05,48,11.20
2017,06,17,05,49,11.20
2017,06,17,05,50,11.20
2017,06,17,05,51,11.20
2017,06,17,05,52,11.20
2017,06,17,05,53,11.20
2017,06,17,05,54,11.20
2017,06,17,05,55,11.20
2017,06,17,05,56,11.20
2017,06,17,05,57,11.20
2017,06,17,05,58,11.20
2017,06,17,05,59,11.20
2017,06,17,06,00,11.20
2017,06,17,06,01,11.20
2017,06,17,06,02,11.20
2017,06,17,06,03,11.20
2017,06,17,06,04,11.20
2017,06,17,06,05,11.20
2017,06,17,06,06,11.20
2017,06,17,06,07,11.20
2017,06,17,06,08,11.20
2017,06,17,06,09,11.20
2017,06,17,06,10,11.20
2017,06,17,06,11,11.20
2017,06,17,06,12,11.20
2017,06,17,06,13,11.20
2017,06,17,06,14,11.20
2017,06,17,06,15,11.20
2017,06,17,06,16,11.10
2017,06,17,06,17,11.10
2017,06,17,06,18,11.10
2017,06,17,06,19,11.10
2017,06,17,06,20,11.10
2017,06,17,06,21,11.10
2017,06,17,06,22,11.10
2017,06,17,06,23,11.10
2017,06,17,06,24,11.10
2017,06,17,06,25,11.10
2017,06,17,06,26,11.10
2017,06,17,06,27,11.10
2017,06,17,06,28,11.10
2017,06,17,06,29,11.10
2017,06,17,06,30,11.10
2017,06,17,06,31,11.10
2017,06,17,06,32,11.10
2017,06,17,06,33,11.10
2017,06,17,06,34,11.10
2017,06,17,06,35,11.10
2017,06,17,06,36,11.10
2017,06,17,06,37,11.10
2017,06,17,06,38,11.10
2017,06,17,06,39,11.10
2017,06,17,06,40,11.10
2017,06,17,06,41,11.10
2017,06,17,06,42,11.10
2017,06,17,06,43,11.10
2017,06,17,06,44,11.10
2017,06,17,06,45,11.20
2017,06,17,06,46,11.20
2017,06,17,06,47,11.20
2017,06,17,06,48,11.20
2017,06,17,06,49,11.20
2017,06,17,06,50,11.20
2017,06,17,06,51,11.20
2017,06,17,06,52,11.20
2017,06,17,06,53,11.30
2017,06,17,06,54,11.30
2017,06,17,06,55,11.30
2017,06,17,06,56,11.30
2017,06,17,06,57,11.30
2017,06,17,06,58,11.30
2017,06,17,06,59,11.30
2017,06,17,07,00,11.30
2017,06,17,07,01,11.30
2017,06,17,07,02,11.40
2017,06,17,07,03,11.40
2017,06,17,07,04,11.40
2017,06,17,07,05,11.40
2017,06,17,07,06,11.40
2017,06,17,07,07,11.40
2017,06,17,07,08,11.40
2017,06,17,07,09,11.40
2017,06,17,07,10,11.40
2017,06,17,07,11,11.40
2017,06,17,07,12,11.40
2017,06,17,07,13,11.40
2017,06,17,07,14,11.40
2017,06,17,07,15,11.40
2017,06,17,07,16,11.40
2017,06,17,07,17,11.50
2017,06,17,07,18,11.50
2017,06,17,07,19,11.40
2017,06,17,07,20,11.50
2017,06,17,07,21,11.50
2017,06,17,07,22,11.50
2017,06,17,07,23,11.50
2017,06,17,07,24,11.50
2017,06,17,07,25,11.50
2017,06,17,07,26,11.50
2017,06,17,07,27,11.50
2017,06,17,07,28,11.50
2017,06,17,07,29,11.50
2017,06,17,07,30,11.50
2017,06,17,07,31,11.50
2017,06,17,07,32,11.50
2017,06,17,07,33,11.50
2017,06,17,07,34,11.50
2017,06,17,07,35,11.50
2017,06,17,07,36,11.50
2017,06,17,07,37,11.50
2017,06,17,07,38,11.50
2017,06,17,07,39,11.50
2017,06,17,07,40,11.50
2017,06,17,07,41,11.50
2017,06,17,07,42,11.50
2017,06,17,07,43,11.50
2017,06,17,07,44,11.50
2017,06,17,07,45,11.50
2017,06,17,07,46,11.50
2017,06,17,07,47,11.50
2017,06,17,07,48,11.50
2017,06,17,07,49,11.50
2017,06,17,07,50,11.50
2017,06,17,07,51,11.50
2017,06,17,07,52,11.50
2017,06,17,07,53,11.50
2017,06,17,07,54,11.50
2017,06,17,07,55,11.60
2017,06,17,07,56,11.60
2017,06,17,07,57,11.60
2017,06,17,07,58,11.60
2017,06,17,07,59,11.60
2017,06,17,08,00,11.60
2017,06,17,08,01,11.60
2017,06,17,08,02,11.60
2017,06,17,08,03,11.60
2017,06,17,08,04,11.60
2017,06,17,08,05,11.60
2017,06,17,08,06,11.60
2017,06,17,08,07,11.60
2017,06,17,08,08,11.60
2017,06,17,08,09,11.60
2017,06,17,08,10,11.60
2017,06,17,08,11,11.60
2017,06,17,08,12,11.60
2017,06,17,08,13,11.60
2017,06,17,08,14,11.60
2017,06,17,08,15,11.60
2017,06,17,08,16,11.60
2017,06,17,08,17,11.60
2017,06,17,08,18,11.60
2017,06,17,08,19,11.60
2017,06,17,08,20,11.60
2017,06,17,08,21,11.60
2017,06,17,08,22,11.60
2017,06,17,08,23,11.60
2017,06,17,08,24,11.60
2017,06,17,08,25,11.70
2017,06,17,08,26,11.70
2017,06,17,08,27,11.60
2017,06,17,08,28,11.60
2017,06,17,08,29,11.60
2017,06,17,08,30,11.70
2017,06,17,08,31,11.70
2017,06,17,08,32,11.70
2017,06,17,08,33,11.70
2017,06,17,08,34,11.70
2017,06,17,08,35,11.70
2017,06,17,08,36,11.70
2017,06,17,08,37,11.70
2017,06,17,08,38,11.70
2017,06,17,08,39,11.70
2017,06,17,08,40,11.70
2017,06,17,08,41,11.70
2017,06,17,08,42,11.70
2017,06,17,08,43,11.70
2017,06,17,08,44,11.70
2017,06,17,08,45,11.70
2017,06,17,08,46,11.70
2017,06,17,08,47,11.70
2017,06,17,08,48,11.70
2017,06,17,08,49,11.70
2017,06,17,08,50,11.70
2017,06,17,08,51,11.80
2017,06,17,08,52,11.80
2017,06,17,08,53,11.80
2017,06,17,08,54,11.80
2017,06,17,08,55,11.80
2017,06,17,08,56,11.80
2017,06,17,08,57,11.80
2017,06,17,08,58,11.80
2017,06,17,08,59,11.90
2017,06,17,09,00,11.90
2017,06,17,09,01,11.90
2017,06,17,09,02,11.90
2017,06,17,09,03,12.00
2017,06,17,09,04,12.00
2017,06,17,09,05,12.00
2017,06,17,09,06,12.00
2017,06,17,09,07,12.00
2017,06,17,09,08,12.00
2017,06,17,09,09,12.10
2017,06,17,09,10,12.10
2017,06,17,09,11,12.10
2017,06,17,09,12,12.10
2017,06,17,09,13,12.10
2017,06,17,09,14,12.10
2017,06,17,09,15,12.20
2017,06,17,09,16,12.20
2017,06,17,09,17,12.20
2017,06,17,09,18,12.20
2017,06,17,09,19,12.20
2017,06,17,09,20,12.20
2017,06,17,09,21,12.20
2017,06,17,09,22,12.20
2017,06,17,09,23,12.20
2017,06,17,09,24,12.20
2017,06,17,09,25,12.20
2017,06,17,09,26,12.20
2017,06,17,09,27,12.30
2017,06,17,09,28,12.30
2017,06,17,09,29,12.30
2017,06,17,09,30,12.30
2017,06,17,09,31,12.30
2017,06,17,09,32,12.30
2017,06,17,09,33,12.30
2017,06,17,09,34,12.30
2017,06,17,09,35,12.30
2017,06,17,14,11,12.70
2017,06,17,14,12,12.70
2017,06,17,14,13,12.70
2017,06,17,14,14,12.70
2017,06,17,14,15,12.70
2017,06,17,14,16,12.80
2017,06,17,14,17,12.80
2017,06,17,14,18,12.80
2017,06,17,14,19,12.80
2017,06,17,14,20,12.90
2017,06,17,14,21,12.90
2017,06,17,14,22,12.80
2017,06,17,14,23,12.80
2017,06,17,14,24,12.80
2017,06,17,14,25,12.80
2017,06,17,14,26,12.80
2017,06,17,14,27,12.80
2017,06,17,14,28,12.80
2017,06,17,14,29,12.90
2017,06,17,14,30,13.00
2017,06,17,14,31,13.00
2017,06,17,14,32,13.10
2017,06,17,14,33,13.20
2017,06,17,14,34,13.30
2017,06,17,14,35,13.30
2017,06,17,14,36,13.30
2017,06,17,14,37,13.30
2017,06,17,14,38,13.30
2017,06,17,14,39,13.30
2017,06,17,14,40,13.30
2017,06,17,14,41,13.30
2017,06,17,14,42,13.20
2017,06,17,14,43,13.20
2017,06,17,14,44,13.20
2017,06,17,14,45,13.20
2017,06,17,14,46,13.30
2017,06,17,14,47,13.30
2017,06,17,14,48,13.30
2017,06,17,14,49,13.30
2017,06,17,14,50,13.30
2017,06,17,14,51,13.30
2017,06,17,14,52,13.30
2017,06,17,14,53,13.30
2017,06,17,14,54,13.30
2017,06,17,14,55,13.30
2017,06,17,14,56,13.40
2017,06,17,14,57,13.40
2017,06,17,14,58,13.40
2017,06,17,14,59,13.40
2017,06,17,15,00,13.50
2017,06,17,15,01,13.50
2017,06,17,15,02,13.40
2017,06,17,15,03,13.50
2017,06,17,15,04,13.50
2017,06,17,15,05,13.50
2017,06,17,15,06,13.50
2017,06,17,15,07,13.50
2017,06,17,15,08,13.50
2017,06,17,15,09,13.50
2017,06,17,15,10,13.50
2017,06,17,15,11,13.40
2017,06,17,15,12,13.40
2017,06,17,15,13,13.30
2017,06,17,15,14,13.30
2017,06,17,15,15,13.30
2017,06,17,15,16,13.30
2017,06,17,15,17,13.30
2017,06,17,15,18,13.30
2017,06,17,15,19,13.30
2017,06,17,15,20,13.30
2017,06,17,15,21,13.30
2017,06,17,15,22,13.20
2017,06,17,15,23,13.20
2017,06,17,15,24,13.20
2017,06,17,15,25,13.20
2017,06,17,15,26,13.20
2017,06,17,15,27,13.20
2017,06,17,15,28,13.10
2017,06,17,15,29,13.00
2017,06,17,15,30,13.00
2017,06,17,15,31,13.00
2017,06,17,15,32,12.90
2017,06,17,15,33,12.90
2017,06,17,15,34,12.90
2017,06,17,15,35,12.90
2017,06,17,15,36,12.90
2017,06,17,15,37,12.90
2017,06,17,15,38,12.90
2017,06,17,15,39,12.80
2017,06,17,15,40,12.80
2017,06,17,15,41,12.80
2017,06,17,15,42,12.80
2017,06,17,15,43,12.80
2017,06,17,15,44,12.80
2017,06,17,15,45,12.90
2017,06,17,15,46,12.80
2017,06,17,15,47,12.90
2017,06,17,15,48,12.90
2017,06,17,15,49,12.80
2017,06,17,15,50,12.80
2017,06,17,15,51,12.80
2017,06,17,15,52,12.80
2017,06,17,15,53,12.70
2017,06,17,15,54,12.70
2017,06,17,15,55,12.70
2017,06,17,15,56,12.70
2017,06,17,15,57,12.70
2017,06,17,15,58,12.70
2017,06,17,15,59,12.70
2017,06,17,16,00,12.70
2017,06,17,16,01,12.80
2017,06,17,16,02,12.80
2017,06,17,16,03,12.80
2017,06,17,16,04,12.80
2017,06,17,16,05,12.70
2017,06,17,16,06,12.70
2017,06,17,16,07,12.70
2017,06,17,16,08,12.70
2017,06,17,16,09,12.70
2017,06,17,16,10,12.70
2017,06,17,16,11,12.70
2017,06,17,16,12,12.70
2017,06,17,16,13,12.70
2017,06,17,16,14,12.70
2017,06,17,16,15,12.60
2017,06,17,16,16,12.60
2017,06,17,16,17,12.60
2017,06,17,16,18,12.60
2017,06,17,16,19,12.50
2017,06,17,16,20,12.50
2017,06,17,16,21,12.50
2017,06,17,16,22,12.50
2017,06,17,16,23,12.50
2017,06,17,16,24,12.50
2017,06,17,16,25,12.50
2017,06,17,16,26,12.50
2017,06,17,16,27,12.60
2017,06,17,16,28,12.60
2017,06,17,16,29,12.60
2017,06,17,16,30,12.60
2017,06,17,16,31,12.60
2017,06,17,16,32,12.60
2017,06,17,16,33,12.60
2017,06,17,16,34,12.50
2017,06,17,16,35,12.50
2017,06,17,16,36,12.40
2017,06,17,16,37,12.50
2017,06,17,16,38,12.50
2017,06,17,16,39,12.40
2017,06,17,16,40,12.40
2017,06,17,16,41,12.40
2017,06,17,16,42,12.30
2017,06,17,16,43,12.30
2017,06,17,16,44,12.30
2017,06,17,16,45,12.30
2017,06,17,16,46,12.30
2017,06,17,16,47,12.30
2017,06,17,16,48,12.30
2017,06,17,16,49,12.30
2017,06,17,16,50,12.30
2017,06,17,16,51,12.30
2017,06,17,16,52,12.30
2017,06,17,16,53,12.30
2017,06,17,16,54,12.30
2017,06,17,16,55,12.30
2017,06,17,16,56,12.30
2017,06,17,16,57,12.30
2017,06,17,16,58,12.30
2017,06,17,16,59,12.30
2017,06,17,17,00,12.20
2017,06,17,17,01,12.20
2017,06,17,17,02,12.20
2017,06,17,17,03,12.20
2017,06,17,17,04,12.20
2017,06,17,17,05,12.10
2017,06,17,17,06,12.10
2017,06,17,17,07,12.10
2017,06,17,17,08,12.10
2017,06,17,17,09,12.10
2017,06,17,17,10,12.10
2017,06,17,17,11,12.10
2017,06,17,17,12,12.10
2017,06,17,17,13,12.10
2017,06,17,17,14,12.10
2017,06,17,17,15,12.10
2017,06,17,17,16,12.10
2017,06,17,17,17,12.10
2017,06,17,17,18,12.10
2017,06,17,17,19,12.10
2017,06,17,17,20,12.10
2017,06,17,17,21,12.10
2017,06,17,17,22,12.10
2017,06,17,17,23,12.10
2017,06,17,17,24,12.10
2017,06,17,17,25,12.10
2017,06,17,17,26,12.10
2017,06,17,17,27,12.10
2017,06,17,17,28,12.10
2017,06,17,17,29,12.10
2017,06,17,17,30,12.20
2017,06,17,17,31,12.20
2017,06,17,17,32,12.20
2017,06,17,17,33,12.20
2017,06,17,17,34,12.20
2017,06,17,17,35,12.30
2017,06,17,17,36,12.30
2017,06,17,17,37,12.30
2017,06,17,17,38,12.30
2017,06,17,17,39,12.30
2017,06,17,17,40,12.30
2017,06,17,17,41,12.30
2017,06,17,17,42,12.20
2017,06,17,17,43,12.20
2017,06,17,17,44,12.10
2017,06,17,17,45,12.10
2017,06,17,17,46,12.00
2017,06,17,17,47,12.00
2017,06,17,17,48,11.90
2017,06,17,17,49,11.90
2017,06,17,17,50,11.90
2017,06,17,17,51,11.90
2017,06,17,17,52,11.90
2017,06,17,17,53,11.90
2017,06,17,17,54,11.90
2017,06,17,17,55,12.00
2017,06,17,17,56,12.00
2017,06,17,17,57,12.00
2017,06,17,17,58,12.10
2017,06,17,17,59,12.10
2017,06,17,18,00,12.10
2017,06,17,18,01,12.10
2017,06,17,18,02,12.10
2017,06,17,18,03,12.10
2017,06,17,18,04,12.10
2017,06,17,18,05,12.10
2017,06,17,18,06,12.10
2017,06,17,18,07,12.10
2017,06,17,18,08,12.10
2017,06,17,18,09,12.10
2017,06,17,18,10,12.10
2017,06,17,18,11,12.00
2017,06,17,18,12,11.90
2017,06,17,18,13,11.90
2017,06,17,18,14,11.90
2017,06,17,18,15,11.90
2017,06,17,18,16,12.00
2017,06,17,18,17,12.00
2017,06,17,18,18,12.00
2017,06,17,18,19,12.00
2017,06,17,18,20,12.00
2017,06,17,18,21,12.00
2017,06,17,18,22,12.00
2017,06,17,18,23,12.00
2017,06,17,18,24,12.00
2017,06,17,18,25,12.00
2017,06,17,18,26,12.00
2017,06,17,18,27,11.90
2017,06,17,18,28,11.90
2017,06,17,18,29,11.90
2017,06,17,18,30,11.90
2017,06,17,18,31,11.90
2017,06,17,18,32,11.90
2017,06,17,18,33,11.90
2017,06,17,18,34,11.90
2017,06,17,18,35,11.90
2017,06,17,18,36,11.90
2017,06,17,18,37,11.90
2017,06,17,18,38,11.90
2017,06,17,18,39,11.90
2017,06,17,18,40,11.90
2017,06,17,18,41,11.90
2017,06,17,18,42,11.90
2017,06,17,18,43,11.90
2017,06,17,18,44,11.90
2017,06,17,18,45,11.90
2017,06,17,18,46,11.90
2017,06,17,18,47,11.90
2017,06,17,18,48,11.90
2017,06,17,18,49,11.90
2017,06,17,18,50,11.90
2017,06,17,18,51,11.90
2017,06,17,18,52,11.90
2017,06,17,18,53,11.90
2017,06,17,18,54,11.90
2017,06,17,18,55,11.90
2017,06,17,18,56,11.90
2017,06,17,18,57,11.90
2017,06,17,18,58,11.90
2017,06,17,18,59,11.90
2017,06,17,19,00,11.90
2017,06,17,19,01,12.00
2017,06,17,19,02,11.90
2017,06,17,19,03,12.00
2017,06,17,19,04,12.00
2017,06,17,19,05,12.00
2017,06,17,19,06,12.00
2017,06,17,19,07,12.00
2017,06,17,19,08,12.10
2017,06,17,19,09,12.10
2017,06,17,19,10,12.10
2017,06,17,19,11,12.10
2017,06,17,19,12,12.10
2017,06,17,19,13,12.20
2017,06,17,19,14,12.20
2017,06,17,19,15,12.20
2017,06,17,19,16,12.20
2017,06,17,19,17,12.20
2017,06,17,19,18,12.20
2017,06,17,19,19,12.10
2017,06,17,19,20,12.10
2017,06,17,19,21,12.10
2017,06,17,19,22,12.10
2017,06,17,19,23,12.10
2017,06,17,19,24,12.10
2017,06,17,19,25,12.10
2017,06,17,19,26,12.10
2017,06,17,19,27,12.10
2017,06,17,19,28,12.10
2017,06,17,19,29,12.10
2017,06,17,19,30,12.10
2017,06,17,19,31,12.10
2017,06,17,19,32,12.10
2017,06,17,19,33,12.10
2017,06,17,19,34,12.10
2017,06,17,19,35,12.10
2017,06,17,19,36,12.10
2017,06,17,19,37,12.20
2017,06,17,19,38,12.20
2017,06,17,19,39,12.20
2017,06,17,19,40,12.20
2017,06,17,19,41,12.20
2017,06,17,19,42,12.20
2017,06,17,19,43,12.20
2017,06,17,19,44,12.20
2017,06,17,19,45,12.20
2017,06,17,19,46,12.20
2017,06,17,19,47,12.20
2017,06,17,19,48,12.10
2017,06,17,19,49,12.10
2017,06,17,19,50,12.10
2017,06,17,19,51,12.10
2017,06,17,19,52,12.10
2017,06,17,19,53,12.10
2017,06,17,19,54,12.10
2017,06,17,19,55,12.10
2017,06,17,19,56,12.10
2017,06,17,19,57,12.10
2017,06,17,19,58,12.10
2017,06,17,19,59,12.10
2017,06,17,20,00,12.10
2017,06,17,20,01,12.10
2017,06,17,20,02,12.10
2017,06,17,20,03,12.10
2017,06,17,20,04,12.10
2017,06,17,20,05,12.10
2017,06,17,20,06,12.10
2017,06,17,20,07,12.10
2017,06,17,20,08,12.10
2017,06,17,20,09,12.10
2017,06,17,20,10,12.10
2017,06,17,20,11,12.10
2017,06,17,20,12,12.10
2017,06,17,20,13,12.10
2017,06,17,20,14,12.10
2017,06,17,20,15,12.10
2017,06,17,20,16,12.10
2017,06,17,20,17,12.10
2017,06,17,20,18,12.10
2017,06,17,20,19,12.10
2017,06,17,20,20,12.10
2017,06,17,20,21,12.10
2017,06,17,20,22,12.10
2017,06,17,20,23,12.10
2017,06,17,20,24,12.10
2017,06,17,20,25,12.10
2017,06,17,20,26,12.10
2017,06,17,20,27,12.10
2017,06,17,20,28,12.10
2017,06,17,20,29,12.10
2017,06,17,20,30,12.10
2017,06,17,20,31,12.10
2017,06,17,20,32,12.10
2017,06,17,20,33,12.10
2017,06,17,20,34,12.10
2017,06,17,20,35,12.10
2017,06,17,20,36,12.10
2017,06,17,20,37,12.10
2017,06,17,20,38,12.10
2017,06,17,20,39,12.10
2017,06,17,20,40,12.10
2017,06,17,20,41,12.10
2017,06,17,20,42,12.10
2017,06,17,20,43,12.10
2017,06,17,20,44,12.10
2017,06,17,20,45,12.10
2017,06,17,20,46,12.10
2017,06,17,20,47,12.10
2017,06,17,20,48,12.10
2017,06,17,20,49,12.10
2017,06,17,20,50,12.10
2017,06,17,20,51,12.10
2017,06,17,20,52,12.10
2017,06,17,20,53,12.10
2017,06,17,20,54,12.10
2017,06,17,20,55,12.10
2017,06,17,20,56,12.00
2017,06,17,20,57,12.00
2017,06,17,20,58,12.00
2017,06,17,20,59,11.90
2017,06,17,21,00,11.90
2017,06,17,21,01,11.90
2017,06,17,21,02,11.90
2017,06,17,21,03,11.90
2017,06,17,21,04,11.80
2017,06,17,21,05,11.80
2017,06,17,21,06,11.80
2017,06,17,21,07,11.80
2017,06,17,21,08,11.80
2017,06,17,21,09,11.70
2017,06,17,21,10,11.70
2017,06,17,21,11,11.70
2017,06,17,21,12,11.70
2017,06,17,21,13,11.60
2017,06,17,21,14,11.60
2017,06,17,21,15,11.50
2017,06,17,21,16,11.50
2017,06,17,21,17,11.40
2017,06,17,21,18,11.40
2017,06,17,21,19,11.40
2017,06,17,21,20,11.30
2017,06,17,21,21,11.30
2017,06,17,21,22,11.30
2017,06,17,21,23,11.30
2017,06,17,21,24,11.30
2017,06,17,21,25,11.20
2017,06,17,21,26,11.20
2017,06,17,21,27,11.20
2017,06,17,21,28,11.20
2017,06,17,21,29,11.10
2017,06,17,21,30,11.10
2017,06,17,21,31,11.10
2017,06,17,21,32,11.10
2017,06,17,21,33,11.10
2017,06,17,21,34,11.10
2017,06,17,21,35,11.10
2017,06,17,21,36,11.00
2017,06,17,21,37,11.10
2017,06,17,21,38,11.10
2017,06,17,21,39,11.10
2017,06,17,21,40,11.00
2017,06,17,21,41,11.00
2017,06,17,21,42,11.00
2017,06,17,21,43,11.00
2017,06,17,21,44,10.90
2017,06,17,21,45,10.90
2017,06,17,21,46,10.90
2017,06,17,21,47,10.90
2017,06,17,21,48,10.90
2017,06,17,21,49,10.90
2017,06,17,21,50,10.80
2017,06,17,21,51,10.80
2017,06,17,21,52,10.80
2017,06,17,21,53,10.80
2017,06,17,21,54,10.80